Capitol Logistics 457


KMSP
Minneapolis-St Paul International Airport
Minneapolis, Minnesota, US
KEWR
Newark Liberty International Airport
Newark, New Jersey, US

Activity Log

Date Flight Route Aircraft Duration
04/12/2020 CPX457 KMSP NICKL DLL BAE ADALE VIO HASTE ALPHE CRL KEEHO DORET ZORBO SLT KEWR B738 2h 31m
04/10/2020 CPX457 WLSTN7 GRB KEEHO J584 SLT FQM3 B738 2h 25m
10/28/2019 CPX457 WLSTN7 GRB KEEHO J584 SLT FQM3 B738 3h 00m
07/19/2019 CPX457 ZMBRO7 ODI KG78K KG72M EVOTE NELLS KEEHO J584 SLT FQM3 B738 2h 29m

Route Details

Aircraft Information
Primary: Boeing 737-800BCF
Backup: Not Available
Route Data
Distance: 875nm
Sched. Duration: 2h 39m
Avg. Duration: 2h 46m (+7m)
Times Flown: 4
Recm'd Route: WLSTN7 GRB KEEHO J584 SLT FQM3
Planned Altitude: 35,000ft
Origin Wx: KMSP 221653Z 05011KT 4SM -RA BR BKN013 OVC042 01/M01 A3012 RMK AO2 SLP210 DZB15E30RAB30 P0000 T00061006
Dest. Wx: KEWR 221651Z 05005KT 2SM HZ SCT007 OVC012 21/17 A3025 RMK AO2 SFC VIS 5 SLP243 T02110172
Notes:

Financial History
Total Freight: 53,328lbs
Average Load: 13,332lbs/flt
Fuel Used: 48,733lbs
Avg. Fuel Used: 12,183lbs/flt
Fuel Expense: $58,967
Avg. Fuel Expense: $14,742
Avg. Fuel Cost: $1.21/lbs
Total Gross Income: $72,019
Pilot Pay: $626
Total Expenses: $7,986
Total Revenue: $3,333
Average Revenue: $18,004.80